MPEC 2007-V31 : 2007 VT6

The following Minor Planet Electronic Circular may be linked-to from your own Web pages, but must not otherwise be redistributed electronically.


Read MPEC 2007-V30 Read MPEC 2007-V32


M.P.E.C. 2007-V31                                Issued 2007 Nov. 5, 16:54 UT

     The Minor Planet Electronic Circulars contain information on unusual
         minor planets and routine data on comets.  They are published
   on behalf of Commission 20 of the International Astronomical Union by the
          Minor Planet Center, Smithsonian Astrophysical Observatory,
                          Cambridge, MA 02138, U.S.A.

             Prepared using the Tamkin Foundation Computer Network

                              MPC@CFA.HARVARD.EDU
          URL http://www.cfa.harvard.edu/iau/mpc.html  ISSN 1523-6714

                                   2007 VT6

Observations:
     K07V06T* C2007 11 03.19815 03 04 15.38 +13 25 29.0          20.5 V EV031691
     K07V06T  C2007 11 03.21580 03 04 13.76 +13 25 01.7          19.6 V EV031691
     K07V06T  C2007 11 03.23345 03 04 12.10 +13 24 34.0          19.5 V EV031691
     K07V06T  C2007 11 03.39517 03 03 56.62 +13 20 13.8          19.1 V EV031G96
     K07V06T  C2007 11 03.39686 03 03 56.48 +13 20 11.0          18.8 V EV031G96
     K07V06T  C2007 11 03.39849 03 03 56.34 +13 20 08.4          18.7 V EV031G96
     K07V06T  C2007 11 03.40014 03 03 56.16 +13 20 05.7          18.7 V EV031G96
     K07V06T  C2007 11 03.87031 03 03 15.41 +13 07 13.3          19.9 V EV031595
     K07V06T  C2007 11 03.88104 03 03 14.38 +13 06 55.2          19.7 V EV031595
     K07V06T  C2007 11 03.88685 03 03 13.79 +13 06 46.4          19.8 V EV031595
     K07V06T  C2007 11 03.89061 03 03 13.55 +13 06 40.3          19.7 V EV031A56
     K07V06T  C2007 11 03.89654 03 03 12.96 +13 06 30.4          19.8 V EV031A56
     K07V06T  C2007 11 03.90346 03 03 12.27 +13 06 19.1          19.7 V EV031A56
     K07V06T  C2007 11 03.97013 03 03 05.70 +13 04 28.0          19.6 V EV031473
     K07V06T  C2007 11 03.97222 03 03 05.50 +13 04 25.0          19.7 V EV031473
     K07V06T  C2007 11 03.97285 03 03 05.45 +13 04 23.2          18.7 R EV031235
     K07V06T  C2007 11 03.98963 03 03 03.79 +13 03 55.0          18.4 R EV031235
     K07V06T  C2007 11 04.11042 03 02 52.31 +13 00 31.1                 EV031J95
     K07V06T  C2007 11 04.11461 03 02 51.91 +13 00 24.5                 EV031J95
     K07V06T  C2007 11 04.11878 03 02 51.47 +13 00 16.2          19.6 R EV031J95
     K07V06T  C2007 11 04.26206 03 02 39.16 +12 56 22.3          19.3   EV031704
     K07V06T  C2007 11 04.27418 03 02 37.92 +12 56 02.0          19.4   EV031704
     K07V06T  C2007 11 04.28632 03 02 36.72 +12 55 41.6          19.6   EV031704
     K07V06T  C2007 11 04.29569 03 02 35.85 +12 55 26.1          19.4 V EV031291
     K07V06T  C2007 11 04.29836 03 02 35.48 +12 55 21.1          19.5   EV031704
     K07V06T  C2007 11 04.29961 03 02 35.45 +12 55 19.6          19.4 V EV031291
     K07V06T  C2007 11 04.30398 03 02 35.01 +12 55 12.2          19.4 V EV031291
     K07V06T  C2007 11 04.31042 03 02 34.26 +12 55 00.7          19.4   EV031704
     K07V06T  C2007 11 04.34627 03 02 30.73 +12 53 59.9          19.2 V EV031G96
     K07V06T  C2007 11 04.35127 03 02 30.19 +12 53 51.4          19.1 V EV031G96
     K07V06T  C2007 11 04.35643 03 02 29.68 +12 53 42.6          18.6 V EV031G96
     K07V06T  C2007 11 04.36307 03 02 29.00 +12 53 31.1          19.2 V EV031G96
     K07V06T  C2007 11 05.19704 03 01 10.39 +12 29 20.8          19.5 V EV031291
     K07V06T  C2007 11 05.20193 03 01 09.87 +12 29 12.2          19.4 V EV031291
     K07V06T  C2007 11 05.20569 03 01 09.46 +12 29 05.4          19.5 V EV031291
     K07V06T  C2007 11 05.30442 03 00 58.61 +12 26 07.1          18.9 R EV031734
     K07V06T  C2007 11 05.30600 03 00 58.46 +12 26 04.4          19.0 R EV031734
     K07V06T  C2007 11 05.30751 03 00 58.31 +12 26 02.0          19.2 R EV031734
     K07V06T  C2007 11 05.30902 03 00 58.19 +12 25 59.7          19.3 R EV031734
     K07V06T  C2007 11 05.31053 03 00 57.99 +12 25 56.4          18.9 R EV031734

Observer details:
235 CAST Observatory, Talmassons.  Observer R. Ligustri.  0.35-m f/5 reflector
    + CCD.
291 LPL/Spacewatch II.  Observers M. T. Read, T. H. Bressi.  1.8-m f/2.7
    reflector + CCD.
473 Remanzacco.  Observers L. Donato, M. Gonano, V. Gonano, E. Guido,
    V. Santini, G. Sostero.  0.45-m f/4.4 Newtonian reflector + CCD.
595 Farra d'Isonzo.  Observers L. Bittesini, G. Lombardi, E. Pettarin,
    F. Piani.  Measurer L. Bittesini.  0.40-m f/4.5 reflector + CCD.
691 Steward Observatory, Kitt Peak.  Observer M. T. Read.  0.9-m f/3 reflector
    + CCD.
704 Lincoln Laboratory ETS, New Mexico.  Observers M. Bezpalko, D. Torres,
    R. Kracke, G. Spitz, J. Kistler.  Measurers J. Stuart, S. Scruggs.  1.0-m
    f/2.15 reflector + CCD.
734 Farpoint Observatory.  Observer G. Hug.  0.7-m reflector + CCD.
A56 Parma.  Observer A. Carbognani.  0.30-m f/4.0 reflector + CCD.
G96 Mt. Lemmon Survey.  Observer A. Boattini.  Measurers E. C. Beshore,
    A. Boattini, G. J. Garradd, A. R. Gibbs, A. D. Grauer, R. E. Hill,
    R. A. Kowalski, S. M. Larson, R. H. McNaught.  1.5-m reflector + CCD.
J95 Great Shefford.  Observer P. Birtwhistle.  0.40-m f/6.0 Schmidt-Cassegrain
    + CCD.

Orbital elements:
2007 VT6                                            PHA, Earth MOID = 0.0262 AU
Epoch 2007 Oct. 27.0 TT = JDT 2454400.5                 MPC
M 330.98826              (2000.0)            P               Q
n   0.32490699     Peri.  293.25921     -0.83983672     -0.53739267
a   2.0955435      Node   214.37479     +0.53434917     -0.79351469
e   0.6729725      Incl.    7.80797     +0.09563082     -0.28555832
P   3.03           H   20.2           G   0.15           U   8
Residuals in seconds of arc
071103 691  0.1-  0.4-    071103 473  0.0   0.7+    071104 G96  0.2+  0.3-
071103 691  0.2+  0.1+    071103 235  0.1+  0.1-    071104 G96  0.3-  0.2-
071103 691  0.1+  0.3+    071103 235  0.1-  0.4-    071104 G96  0.1-  0.2-
071103 G96  0.6-  0.1-    071104 J95  0.4+  0.1-    071104 G96  0.2-  0.4-
071103 G96  0.3-  0.2-    071104 J95  0.4+  0.4+    071105 291  0.2+  0.1+
071103 G96  0.1-  0.1-    071104 J95  0.1-  0.9-    071105 291  0.0   0.1+
071103 G96  0.4-  0.2-    071104 704  0.2+  0.0     071105 291  0.2-  0.0
071103 595  0.0   0.5+    071104 704  0.1-  0.1+    071105 734  0.4-  0.5-
071103 595  0.1+  0.0     071104 704  0.3+  0.2+    071105 734  0.1-  0.3-
071103 595  0.3-  0.8+    071104 291  0.2-  0.1-    071105 734  0.0   0.0
071103 A56  0.5+  0.5+    071104 704  0.0   0.1+    071105 734  0.6+  0.4+
071103 A56  0.3+  0.4+    071104 291  0.3-  0.1+    071105 734  0.0   0.2-
071103 A56  0.0   0.5+    071104 291  0.2-  0.1+
071103 473  0.1-  0.2+    071104 704  0.0   0.1+

Ephemeris:
2007 VT6                 a,e,i = 2.10, 0.67, 8                   q = 0.6853
Date    TT    R. A. (2000) Decl.     Delta      r     Elong.  Phase     V
2007 11 06    02 59.81   +12 05.2    0.373    1.363   174.4     4.1    19.1
2007 11 16    02 37.07   +05 15.0    0.278    1.257   162.6    13.6    18.7
2007 11 26    01 59.45   -06 22.3    0.205    1.149   139.0    34.3    18.5
2007 12 06    00 54.93   -24 46.3    0.159    1.041   106.4    65.2    18.6
2007 12 16    22 54.81   -45 14.4    0.151    0.937    67.4   104.1    19.8

Timothy B. Spahr             (C) Copyright 2007 MPC           M.P.E.C. 2007-V31

Read MPEC 2007-V30 Read MPEC 2007-V32


Our Web policy. Index to the CBAT/MPC/ICQ pages.

MPC

Valid HTML 4.01!